Flag Weather past 2 weeks in Enns, Upper Austria, Austria

Now
36 °F

Overcast.


Feels Like: 31 °F
Forecast: 31 / 41 °F
Wind: 6 mph from East

Location: Linz / Hoersching-Flughafen

Current Time: Nov 26, 2014 at 5:41:09 AM

Latest Report: Nov 26, 2014 at 4:00 AM


Visibility: 6 mi

Pressure: 30.19 "Hg

Humidity: 86%

Dew point: 32 °F

Location of EnnsLocation

Historic Weather in Enns — Graph

°F

Enns temperature yesterday

Maximum temperature yesterday: 42 °F (at 1:00 PM)
Minimum temperature yesterday: 39 °F (at 3:00 AM)
Average temperature yesterday: 40 °F

Past Weeks' High & Low Weather Summary

 TemperatureHumidityPressure
High66 °F (Nov 12, 2:00 PM)100% (Nov 14, 6:00 AM)30.35 "Hg (Nov 14, 6:00 AM)
Low35 °F (Nov 26, 3:00 AM)54% (Nov 12, 2:00 PM)29.44 "Hg (Nov 16, 3:00 AM)
Average45 °F86%30.00 "Hg
* Reported Nov 11 4:00 AM — Nov 26 4:00 AM, Enns, Weather by CustomWeather, © 2014

Note: Actual official high and low records may vary slightly from our data, if they occured in-between our weather recording intervals... More about our weather records

Advertising

Enns weather history for previous 24 hours

 ConditionsComfort  
Time TempWeatherWind HumidityBarometerVisibility
4:00 AM
Nov 26
36 °FOvercast.6 mph86%30.19 "Hg6 mi
3:00 AM35 °FPassing clouds.5 mph86%30.19 "Hg7 mi
2:00 AM36 °FOvercast.5 mph84%30.20 "Hg7 mi
1:00 AM38 °FOvercast.6 mph79%30.21 "Hg9 mi
12:00 AM39 °FOvercast.8 mph77%30.23 "Hg10 mi
11:00 PM
Nov 25
40 °FOvercast.8 mph78%30.24 "Hg8 mi
10:00 PM40 °FOvercast.8 mph78%30.24 "Hg9 mi
9:00 PM40 °FOvercast.7 mph74%30.25 "Hg13 mi
8:00 PM41 °FOvercast.7 mph74%30.27 "Hg12 mi
7:00 PM40 °FOvercast.6 mph78%30.28 "Hg14 mi
6:00 PM40 °FOvercast.6 mph80%30.29 "Hg15 mi
5:00 PM41 °FOvercast.7 mph78%30.29 "Hg12 mi
4:00 PM41 °FOvercast.6 mph80%30.30 "Hg10 mi
3:00 PM41 °FOvercast.7 mph78%30.29 "Hg9 mi
2:00 PMN/APassing clouds.20 mphN/AN/A3 mi
1:00 PM42 °FOvercast.6 mph79%30.31 "Hg6 mi
12:00 PM42 °FLow clouds.6 mph83%30.32 "Hg5 mi
11:00 AM41 °FLow clouds.6 mph85%30.33 "Hg5 mi
10:00 AM40 °FLow clouds.6 mph88%30.34 "Hg3 mi
9:00 AM40 °FLow clouds.5 mph93%30.34 "Hg3 mi
8:00 AM40 °FLow clouds.5 mph93%30.34 "Hg2 mi
7:00 AM40 °FLow clouds.5 mph94%30.34 "Hg4 mi
6:00 AM39 °FLow clouds.5 mph95%30.34 "Hg3 mi
5:00 AMN/APassing clouds.12 mphN/AN/A16 mi
Weather by CustomWeather, © 2014

See weather overviewHow to use our weather pages